Garrison, ND

3:36 PM CDT on May 25, 2017 (GMT -0500)
Garrison

Weather History for KN60 - August, 2013

Change the Weather History Date:

Friday, August 30, 2013

  Actual Average Record
Temperature  
Mean Temperature 76 °F -  
Max Temperature 91 °F - 96 °F (2008)
Min Temperature 60 °F - 44 °F (2004)
Degree Days  
Heating Degree Days 0    
Cooling Degree Days 11    
Month to date cooling degree days 149  
Year to date cooling degree days 310  
Since 1 June cooling degree days 304  
Growing Degree Days 26 (Base 50)    
Moisture  
Dew Point 64 °F    
Average Humidity 71    
Maximum Humidity 100    
Minimum Humidity 41    
Precipitation  
Precipitation 0.00 in - 1.55 in (2010)
Month to date precipitation 3.42  
Year to date precipitation 22.27  
Sea Level Pressure  
Sea Level Pressure 29.91 in    
Wind  
Wind Speed 5 mph (South)    
Max Wind Speed 14 mph    
Max Gust Speed 18 mph    
T = Trace of Precipitation, MM = Missing Value Source: NWS Daily Summary

Daily Weather History Graph

Daily Weather History Graph

Search for Another Location

Airport or City:

Trip Planner

Search our weather history database for the weather conditions in past years. The results will help you decide how hot, cold, wet, or windy it might be!

Date:

Astronomy

Aug. 30, 2013 Rise Set
Actual Time 7:01 AM CDT 8:29 PM CDT
Civil Twilight 6:29 AM CDT 9:01 PM CDT
Nautical Twilight 5:50 AM CDT 9:40 PM CDT
Astronomical Twilight 5:08 AM CDT 10:22 PM CDT
Moon 1:28 AM CDT (8/30) 4:59 PM CDT (8/30)
Length of Visible Light 14h 31m
Length of Day
13h 27m
Waning Crescent, 29% of the Moon is Illuminated
Aug 30
Waning Crescent
Sep 5
New
Sep 12
First Quarter
Sep 19
Full
Sep 26
Last Quarter

Hourly Weather History & Observations

Time (CDT) Temp. Heat Index Dew Point Humidity Pressure Visibility Wind Dir Wind Speed Gust Speed Precip Events Conditions
12:52 AM 66.0 °F - 64.0 °F 93% 29.99 in - Calm Calm - N/A   Unknown
1:52 AM 64.9 °F - 63.0 °F 93% 30.00 in - Calm Calm - N/A   Unknown
2:52 AM 63.0 °F - 62.1 °F 97% 29.99 in - Calm Calm - N/A   Unknown
3:52 AM 64.0 °F - 63.0 °F 96% 29.99 in - Calm Calm - N/A   Unknown
4:52 AM 64.0 °F - 62.1 °F 93% 29.98 in - Calm Calm - N/A   Unknown
5:52 AM 63.0 °F - 62.1 °F 97% 29.97 in - Calm Calm - N/A   Unknown
6:52 AM 60.1 °F - 60.1 °F 100% 29.99 in - Calm Calm - N/A   Unknown
7:52 AM 63.0 °F - 62.1 °F 97% 30.00 in - Calm Calm - N/A   Unknown
8:52 AM 69.1 °F - 66.9 °F 93% 30.00 in - Calm Calm - N/A   Unknown
9:52 AM 73.0 °F - 66.9 °F 81% 29.99 in - SSW 8.1 mph - N/A   Unknown
10:52 AM 77.0 °F - 68.0 °F 74% 29.98 in - South 6.9 mph - N/A   Unknown
11:52 AM 81.0 °F 83.8 °F 68.0 °F 65% 29.97 in - South 6.9 mph - N/A   Unknown
12:52 PM 84.0 °F 87.0 °F 68.0 °F 58% 29.94 in - South 10.4 mph - N/A   Unknown
1:52 PM 87.1 °F 89.9 °F 66.9 °F 51% 29.92 in - South 9.2 mph 17.3 mph N/A   Unknown
2:52 PM 89.1 °F 90.3 °F 64.0 °F 43% 29.90 in - South 11.5 mph - N/A   Unknown
3:52 PM 90.0 °F 91.3 °F 64.0 °F 42% 29.86 in - South 11.5 mph - N/A   Unknown
4:52 PM 91.0 °F 93.0 °F 64.9 °F 42% 29.84 in - South 11.5 mph - N/A   Unknown
5:52 PM 90.0 °F 90.6 °F 63.0 °F 40% 29.81 in - South 11.5 mph - N/A   Unknown
6:52 PM 88.0 °F 89.3 °F 64.0 °F 45% 29.80 in - South 8.1 mph - N/A   Unknown
7:52 PM 79.0 °F - 64.9 °F 62% 29.79 in - South 8.1 mph - N/A   Unknown
8:52 PM 73.9 °F - 64.0 °F 71% 29.82 in - South 8.1 mph - N/A   Unknown
9:52 PM 72.0 °F - 62.1 °F 71% 29.81 in - South 5.8 mph - N/A   Unknown
10:52 PM 70.0 °F - 64.9 °F 84% 29.80 in - SE 4.6 mph - N/A   Unknown
11:52 PM 70.0 °F - 64.9 °F 84% 29.79 in - SSE 8.1 mph - N/A   Unknown